Weather History for San Diego, CA

Change the Weather History Date:

Friday, February 8, 2013

  Actual Average Record
Temperature  
Mean Temperature 53 °F 58 °F  
Max Temperature 56 °F 65 °F 85 °F (1954)
Min Temperature 49 °F 50 °F 37 °F (1883)
Degree Days  
Heating Degree Days 12 7  
Month to date heating degree days 54 62  
Since 1 July heating degree days 650 717  
Cooling Degree Days 0 0  
Month to date cooling degree days 0 0  
Year to date cooling degree days 0 2  
Moisture  
Dew Point 41 °F    
Average Humidity 63    
Maximum Humidity 71    
Minimum Humidity 54    
Precipitation  
Precipitation 0.18 in 0.08 in 1.71 in (1976)
Month to date precipitation 0.18 0.58  
Year to date precipitation 1.39 2.56  
Since 1 July precipitation 4.56 5.87  
Snow  
Snow 0.00 in - - ()
Month to date snowfall 0.0  
Year to date snowfall 0.0  
Since 1 July snowfall 0.0  
Snow Depth 0.00 in    
Sea Level Pressure  
Sea Level Pressure 30.01 in    
Wind  
Wind Speed 10 mph (West)    
Max Wind Speed 23 mph    
Max Gust Speed 31 mph    
Visibility 10 miles    
Events Rain    
T = Trace of Precipitation, MM = Missing Value Source: NWS Daily Summary

Daily Weather History Graph

Daily Weather History Graph

Search for Another Location

Airport:

Trip Planner

Search our weather history database for the weather conditions in past years. The results will help you decide how hot, cold, wet, or windy it might be!

Date:

Astronomy

Feb. 08, 2013 Rise Set
Actual Time 6:37 AM PST 5:28 PM PST
Civil Twilight 6:12 AM PST 5:53 PM PST
Nautical Twilight 5:43 AM PST 6:23 PM PST
Astronomical Twilight 5:14 AM PST 6:51 PM PST
Moon 5:07 AM PST (2/8) 4:08 PM PST (2/8)
Length of Visible Light 11h 41m
Length of Day
10h 50m
Waning Crescent, 3% of the Moon is Illuminated
Feb 8
Waning Crescent
Feb 9
New
Feb 17
First Quarter
Feb 25
Full
Mar 4
Last Quarter

Hourly Weather History & Observations

Time (PST) Temp. Windchill Dew Point Humidity Pressure Visibility Wind Dir Wind Speed Gust Speed Precip Events Conditions
12:41 AM 55.4 °F - 44.6 °F 67% 30.06 in 10.0 mi WSW 8.1 mph - N/A   Overcast
12:51 AM 55.9 °F - 44.1 °F 64% 30.06 in 10.0 mi West 8.1 mph - N/A   Mostly Cloudy
12:53 AM 55.4 °F - 44.6 °F 67% 30.06 in 10.0 mi West 8.1 mph - N/A   Mostly Cloudy
1:51 AM 55.0 °F - 44.1 °F 67% 30.06 in 10.0 mi West 5.8 mph - N/A   Mostly Cloudy
2:51 AM 55.0 °F - 45.0 °F 69% 30.05 in 10.0 mi West 6.9 mph - N/A   Mostly Cloudy
3:51 AM 55.0 °F - 41.0 °F 59% 30.05 in 10.0 mi West 10.4 mph - N/A   Mostly Cloudy
4:51 AM 54.0 °F - 37.0 °F 53% 30.05 in 10.0 mi West 11.5 mph - N/A   Mostly Cloudy
5:51 AM 54.0 °F - 37.0 °F 53% 30.05 in 10.0 mi West 11.5 mph - N/A   Scattered Clouds
6:51 AM 53.1 °F - 39.9 °F 61% 30.06 in 10.0 mi West 10.4 mph - 0.00 in   Mostly Cloudy
7:51 AM 54.0 °F - 39.0 °F 57% 30.06 in 10.0 mi WNW 5.8 mph - 0.00 in   Mostly Cloudy
8:51 AM 54.0 °F - 39.9 °F 59% 30.07 in 9.0 mi West 13.8 mph 24.2 mph 0.00 in Rain Light Rain
9:51 AM 54.0 °F - 43.0 °F 66% 30.06 in 10.0 mi SSW 9.2 mph - 0.01 in   Mostly Cloudy
10:51 AM 55.0 °F - 43.0 °F 64% 30.06 in 4.0 mi West 9.2 mph - 0.00 in Rain Light Rain
11:51 AM 53.1 °F - 44.1 °F 71% 30.03 in 10.0 mi SW 8.1 mph - 0.14 in   Mostly Cloudy
12:51 PM 55.0 °F - 45.0 °F 69% 30.00 in 10.0 mi SW 12.7 mph - N/A   Mostly Cloudy
1:51 PM 52.0 °F - 43.0 °F 71% 29.99 in 7.0 mi SW 10.4 mph - 0.03 in   Mostly Cloudy
2:51 PM 55.0 °F - 39.9 °F 57% 29.97 in 10.0 mi West 17.3 mph 25.3 mph N/A   Mostly Cloudy
3:51 PM 54.0 °F - 42.1 °F 64% 29.96 in 10.0 mi WNW 11.5 mph - N/A   Overcast
4:51 PM 53.1 °F - 39.0 °F 59% 29.95 in 10.0 mi West 13.8 mph - N/A   Mostly Cloudy
5:51 PM 51.1 °F - 41.0 °F 68% 29.95 in 10.0 mi NW 12.7 mph - 0.00 in Rain Light Rain
6:51 PM 50.0 °F - 41.0 °F 71% 29.95 in 10.0 mi WNW 8.1 mph - 0.03 in   Mostly Cloudy
7:51 PM 51.1 °F - 37.9 °F 61% 29.95 in 10.0 mi WNW 12.7 mph - 0.00 in   Scattered Clouds
8:51 PM 50.0 °F - 39.9 °F 68% 29.95 in 10.0 mi WNW 6.9 mph - 0.00 in   Scattered Clouds
9:51 PM 51.1 °F - 39.0 °F 63% 29.96 in 10.0 mi West 10.4 mph - N/A   Scattered Clouds
10:51 PM 48.9 °F - 41.0 °F 74% 29.96 in 10.0 mi NW 8.1 mph - 0.02 in Rain Light Rain
11:24 PM 46.4 °F 43.5 °F 39.2 °F 76% 29.97 in 6.0 mi North 5.8 mph - 0.01 in Rain Heavy Rain
11:38 PM 46.4 °F 44.3 °F 39.2 °F 76% 29.96 in 8.0 mi ESE 4.6 mph - 0.04 in Rain Light Rain
11:51 PM 46.9 °F - 39.9 °F 77% 29.97 in 10.0 mi East 3.5 mph - 0.04 in   Mostly Cloudy